Regional Weather Roundup
Issued by NWS

Home | Current Version | Previous Version | Graphics & Text | Print | Product List | Glossary On
Versions: 1 2 3 4 5 6 7 8 9 10 11 12 13 14 15 16 17 18 19 20 21 22 23 24 25 26 27 28 29 30 31 32 33 34 35 36 37 38 39 40 41 42 43 44 45 46 47 48 49 50
447
ASUS44 KJAN 020303
RWRMS

MISSISSIPPI HOURLY WEATHER ROUNDUP
NATIONAL WEATHER SERVICE JACKSON MS
1000 PM CDT WED OCT 01 2014

NOTE: "FAIR: INDICATES FEW OR NO CLOUDS BELOW 12,000 FEET WITH NO
SIGNIFICANT WEATHER AND/OR OBSTRUCTIONS TO VISIBILITY.

MSZ001>002-007>008-010>013-018>021-025>028-034>036-020400-
NORTHWEST MISSISSIPPI

CITY           SKY/WX    TMP DP  RH WIND       PRES   REMARKS
CLARKSDALE     FAIR      75  66  73 SE6       29.91S
CLEVELAND      FAIR      79  67  66 SE9       29.90R
GREENWOOD      CLEAR     76  65  68 CALM      29.92R
GREENVILLE     CLEAR     78  64  61 SE7       29.89R
GRENADA        FAIR      70  64  83 CALM      29.93S
OLIVE BRANCH   CLEAR     73  64  73 SE6       29.92S
OXFORD         FAIR      72  63  73 SE8       29.95S
TUNICA         CLEAR     73  64  73 SE6       29.91S
$$

MSZ003>006-009-014>017-022>024-029>033-037>039-020400-
NORTHEAST MISSISSIPPI

CITY           SKY/WX    TMP DP  RH WIND       PRES   REMARKS
COLUMBUS AFB   CLEAR     69  61  75 S6        29.95R
CORINTH          N/A     70  64  83 CALM      29.94S
GOLDN TRIANGLE CLEAR     75  59  57 SE9       29.95R
STARKVILLE     FAIR      70  63  78 CALM      29.95S
TUPELO         CLEAR     72  62  71 CALM      29.95R
$$

MSZ040-058-020400-
CENTRAL MISSISSIPPI

CITY           SKY/WX    TMP DP  RH WIND       PRES   REMARKS
JACKSON INTL   CLEAR     76  68  76 SE8       29.94R
JACKSON HAWKNS CLEAR     78  68  71 SE9       29.94R
MERIDIAN KEY   CLEAR     70  64  81 S3        29.96R
MERIDIAN NAS   PTCLDY    73  64  73 SE3       29.96S
RAYMOND        FAIR      77  72  83 SE5       29.93R
VICKSBURG      PTCLDY    79  71  76 S12       29.91R
$$

MSZ059>079-020400-
SOUTH MISSISSIPPI

CITY           SKY/WX    TMP DP  RH WIND       PRES   REMARKS
BROOKHAVEN     CLOUDY    77  73  88 SE8       29.97R
COLUMBIA       FAIR      75  72  88 CALM      29.95R
HATTIESBURG    CLEAR     76  71  85 S3        29.97R
MCCOMB         MOCLDY    76  72  87 SE9       29.95R
NATCHEZ        CLEAR     75  72  88 S9        29.93R
PINE BELT      CLEAR     73  70  88 S5        29.98R
$$

MSZ080>082-020400-
COASTAL MISSISSIPPI

CITY           SKY/WX    TMP DP  RH WIND       PRES   REMARKS
BILOXI         CLEAR     79  75  88 SE7       29.96R
PASCAGOULA     CLEAR     70  70 100 CALM      29.97R
GULFPORT       CLEAR     79  74  84 SE6       29.95S
$$



USA.gov is the U.S. government's official web portal to all federal, state and local government web resources and services.